Flag for Norway Weather past 2 weeks in Asker, Norway

Now
39 °F

Light rain. Passing clouds.


Feels Like: 28 °F
Forecast: 28 / 43 °F
Wind: 28 mph from North

Location: Oslo / Fornebu

Current Time: Apr 2, 2015 at 7:26:01 AM

Latest Report: Apr 2, 2015 at 6:50 AM


Visibility: N/A

Pressure: 29.77 "Hg

Humidity: 87%

Dew point: 36 °F

Location of AskerLocation

Historic Weather in Asker — Graph

°F

Asker temperature yesterday

Maximum temperature yesterday: 39 °F (at 12:20 AM)
Minimum temperature yesterday: 36 °F (at 1:50 AM)
Average temperature yesterday: 37 °F

Past Weeks' High & Low Weather Summary

 TemperatureHumidityPressure
High48 °F (Mar 24, 12:20 PM)100% (Mar 19, 6:20 AM)30.48 "Hg (Mar 19, 6:20 AM)
Low36 °F (Mar 30, 9:20 PM)39% (Mar 21, 9:50 AM)28.85 "Hg (Mar 28, 8:20 PM)
Average42 °F78%29.68 "Hg
* Reported Mar 18 4:20 AM — Apr 2 5:50 AM, Asker, Weather by CustomWeather, © 2015

Note: Actual official high and low records may vary slightly from our data, if they occured in-between our weather recording intervals... More about our weather records

Advertising

Asker weather history for previous 24 hours

 ConditionsComfort  
Time TempWeatherWind HumidityBarometerVisibility
5:50 AM
Thu, Apr 2
39 °FSprinkles. Passing clouds.40 mph87%29.71 "HgN/A
5:20 AM41 °FSprinkles. Passing clouds.43 mph81%29.68 "HgN/A
4:50 AM39 °FPassing clouds.41 mph87%29.65 "HgN/A
4:20 AM39 °FSprinkles. Partly cloudy.31 mph87%29.65 "HgN/A
3:50 AM41 °FPassing clouds.39 mph81%29.62 "HgN/A
3:20 AM41 °FPartly cloudy.39 mph81%29.59 "HgN/A
2:50 AM39 °FSprinkles. Passing clouds.32 mph87%29.59 "HgN/A
2:20 AM41 °FSprinkles. Passing clouds.30 mph87%29.59 "HgN/A
1:50 AM37 °FRain showers. Passing clouds.28 mph93%29.59 "Hg2 mi
1:20 AM39 °FSprinkles. Passing clouds.32 mph87%29.59 "HgN/A
12:50 AM39 °FLight rain. Overcast.29 mph81%29.59 "HgN/A
12:20 AM37 °FSprinkles. Overcast.23 mph81%29.62 "HgN/A
11:50 PM
Wed, Apr 1
37 °FSprinkles. Passing clouds.21 mph65%29.62 "HgN/A
11:20 PM39 °FPassing clouds.20 mph52%29.62 "HgN/A
10:50 PM39 °FPassing clouds.17 mph56%29.62 "HgN/A
10:20 PM39 °FPassing clouds.17 mph45%29.62 "HgN/A
9:50 PM37 °FPassing clouds.21 mph52%29.59 "HgN/A
9:20 PM37 °FPassing clouds.17 mph56%29.59 "HgN/A
8:50 PM37 °FSprinkles. Overcast.25 mph56%29.59 "HgN/A
8:20 PM37 °FPartly sunny.22 mph48%29.59 "HgN/A
7:50 PM37 °FPartly sunny.22 mph52%29.59 "HgN/A
7:20 PM37 °FSprinkles. Partly sunny.23 mph48%29.56 "HgN/A
6:50 PM37 °FSprinkles. Partly sunny.25 mph52%29.56 "HgN/A
6:20 PM37 °FPartly sunny.26 mph48%29.56 "HgN/A
5:50 PM37 °FSprinkles. Partly sunny.24 mph48%29.56 "HgN/A
5:20 PM37 °FBroken clouds.25 mph52%29.56 "HgN/A
4:50 PM36 °FSnow flurries. Partly sunny.21 mph81%29.56 "Hg6 mi
4:20 PM36 °FSprinkles. Partly sunny.26 mph75%29.56 "Hg4 mi
3:50 PM39 °FSprinkles. Partly sunny.25 mph52%29.56 "HgN/A
3:20 PM37 °FDrizzle. Partly sunny.26 mph52%29.56 "HgN/A
2:50 PM39 °FPartly sunny.30 mph45%29.56 "HgN/A
2:20 PM37 °FPartly sunny.31 mph45%29.53 "HgN/A
1:50 PM37 °FSprinkles. Partly sunny.30 mph48%29.53 "HgN/A
1:20 PM37 °FPartly sunny.35 mph56%29.53 "HgN/A
12:50 PM37 °FPartly sunny.31 mph48%29.53 "HgN/A
12:20 PM36 °FSprinkles. Partly sunny.31 mph60%29.50 "HgN/A
11:50 AM37 °FPartly sunny.31 mph45%29.50 "HgN/A
11:20 AM37 °FPartly sunny.32 mph45%29.50 "HgN/A
10:50 AM36 °FSprinkles. Partly sunny.36 mph52%29.47 "HgN/A
10:20 AM36 °FPartly sunny.35 mph60%29.47 "HgN/A
9:50 AM36 °FPartly sunny.36 mph60%29.47 "HgN/A
9:20 AM36 °FSprinkles. Partly sunny.36 mph52%29.45 "HgN/A
8:50 AM36 °FBroken clouds.38 mph48%29.45 "HgN/A
8:20 AM36 °FBroken clouds.37 mph56%29.45 "HgN/A
7:50 AM36 °FPartly sunny.43 mph52%29.42 "HgN/A
7:20 AM36 °FSprinkles. Passing clouds.45 mph60%29.42 "HgN/A
Weather by CustomWeather, © 2015

See weather overviewHow to use our weather pages